This is the latest recevied weather packets stored in our database for station/object DB0HOL-4. If no packets are shown the sender has not sent any weather packets the latest 1 day(s).
| Time | Temp. | Humidity | Pressure | Rain* | Wind** | Luminosity | Snow |
|---|---|---|---|---|---|---|---|
| 1778018197 | 10° C | 99% | 1005.4 hPa | 0 mm | 1.34 m/s, 11° | 0 W/m² | - |
| 1778016396 | 10° C | 99% | 1005.4 hPa | 0 mm | 0 m/s | 0 W/m² | - |
| 1778014597 | 10° C | 99% | 1005.4 hPa | 0 mm | 0 m/s | 0 W/m² | - |
| 1778012797 | 10° C | 99% | 1005 hPa | 0 mm | 0.89 m/s, 73° | 0 W/m² | - |
| 1778010997 | 10° C | 99% | 1005 hPa | 0 mm | 0.89 m/s, 49° | 0 W/m² | - |
| 1778009197 | 10.56° C | 99% | 1005.4 hPa | 0 mm | 0.89 m/s, 14° | 0 W/m² | - |
| 1778007397 | 10.56° C | 99% | 1005.4 hPa | 0 mm | 1.79 m/s, 38° | 4 W/m² | - |
| 1778005597 | 10.56° C | 99% | 1005.4 hPa | 0 mm | 1.34 m/s, 15° | 56 W/m² | - |
| 1778003797 | 11.11° C | 99% | 1005.4 hPa | 0 mm | 0.45 m/s, 31° | 82 W/m² | - |
| 1778001997 | 11.11° C | 99% | 1005.7 hPa | 0 mm | 0.89 m/s, 25° | 152 W/m² | - |
| 1778000196 | 11.11° C | 99% | 1006 hPa | 0 mm | 0 m/s | 281 W/m² | - |
| 1777998396 | 11.67° C | 99% | 1005.7 hPa | 0 mm | 0.89 m/s, 23° | 259 W/m² | - |
| 1777996597 | 11.67° C | 98% | 1006 hPa | 0 mm | 0.89 m/s, 1° | 360 W/m² | - |
| 1777994796 | 12.22° C | 97% | 1006 hPa | 0 mm | 0 m/s | 511 W/m² | - |
| 1777992997 | 12.22° C | 98% | 1006 hPa | 0 mm | 0.89 m/s, 23° | 164 W/m² | - |
| 1777991197 | 12.22° C | 99% | 1006.4 hPa | 0 mm | 0.89 m/s, 47° | 154 W/m² | - |
| 1777989397 | 12.78° C | 98% | 1006.4 hPa | 0 mm | 1.34 m/s, 1° | 116 W/m² | - |
| 1777987596 | 12.78° C | 97% | 1006.7 hPa | 0 mm | 1.34 m/s, 358° | 141 W/m² | - |
| 1777985796 | 13.33° C | 96% | 1006.7 hPa | 0 mm | 1.34 m/s, 14° | 219 W/m² | - |
| 1777983996 | 12.78° C | 96% | 1007.1 hPa | 0 mm | 1.34 m/s, 359° | 132 W/m² | - |
| 1777982197 | 12.22° C | 97% | 1007.1 hPa | 0 mm | 0.89 m/s, 352° | 140 W/m² | - |
| 1777980397 | 12.78° C | 98% | 1007.1 hPa | 0 mm | 1.34 m/s, 1° | 231 W/m² | - |
| 1777978596 | 13.33° C | 96% | 1007.4 hPa | 0 mm | 0.45 m/s, 36° | 227 W/m² | - |
| 1777976796 | 12.78° C | 99% | 1007.4 hPa | 0 mm | 0.89 m/s, 25° | 465 W/m² | - |
| 1777974997 | 12.22° C | 99% | 1007.7 hPa | 0 mm | 0.45 m/s, 58° | 101 W/m² | - |
* Rain latest hour (hover to see other rain measurements)
** Current wind speed in m/s (hover to see current wind gust speed)